CW3008 Weather Reports


time (UTC)temp
F
wind
direction
speed
knots
gust
knots
rain 1hr
in
rain 24hr
in
rain mn
in
humidity
%
barometer
mb
20220629033012 69 131 0.0 0.0 0.00 0.01 0.01 72 1020.6
20220629031508 69 131 0.0 0.0 0.00 0.01 0.01 72 1020.4
20220629030101 68 131 0.0 0.0 0.00 0.01 0.01 73 1020.4
20220629024556 68 131 0.0 0.0 0.00 0.01 0.01 73 1020.3
20220629023052 69 131 0.0 0.0 0.00 0.01 0.01 71 1020.3
20220629021547 69 131 0.0 0.0 0.00 0.01 0.01 70 1020.2
20220629020014 69 131 0.0 0.0 0.00 0.01 0.01 71 1020.2
20220629014510 69 131 0.0 0.0 0.00 0.01 0.01 69 1020.2
20220629013002 70 131 0.0 0.0 0.00 0.01 0.01 69 1020.0
20220629011557 70 131 0.0 0.0 0.00 0.01 0.01 69 1019.9
20220629010053 69 131 0.0 0.0 0.00 0.01 0.01 70 1019.8
20220629004548 68 131 0.0 0.0 0.00 0.01 0.01 73 1019.6
20220629003044 67 131 0.0 1.7 0.00 0.01 0.01 74 1019.4
20220629001540 68 131 0.9 1.7 0.00 0.01 0.01 72 1019.4
20220629000032 68 131 0.9 2.6 0.00 0.01 0.01 70 1019.3
20220628234528 69 131 0.0 1.7 0.00 0.01 0.01 69 1019.2
20220628233025 68 131 0.9 3.5 0.00 0.01 0.01 70 1019.0
20220628231515 69 126 0.0 2.6 0.00 0.01 0.01 68 1018.9
20220628230011 69 265 0.0 1.7 0.00 0.01 0.01 67 1018.8
20220628224506 69 163 0.9 4.3 0.00 0.02 0.01 67 1018.8
20220628223059 69 180 0.9 3.5 0.00 0.02 0.01 65 1018.8
20220628221554 70 184 1.7 4.3 0.00 0.02 0.01 63 1018.5
20220628220050 71 140 0.9 3.5 0.00 0.02 0.01 61 1018.5
20220628214545 72 211 1.7 5.2 0.00 0.03 0.01 58 1018.6
20220628213011 72 136 1.7 5.2 0.00 0.03 0.01 57 1018.5
20220628211507 72 115 0.9 2.6 0.00 0.03 0.01 59 1018.5
20220628210100 72 250 0.9 4.3 0.00 0.03 0.01 59 1018.5
20220628204554 72 140 3.5 7.0 0.00 0.03 0.01 56 1018.3
20220628203056 72 157 2.6 7.8 0.00 0.03 0.01 57 1018.4
20220628201553 73 126 1.7 5.2 0.00 0.03 0.01 56 1018.5
20220628200022 74 140 1.7 4.3 0.00 0.03 0.01 53 1018.4
20220628194528 74 207 1.7 4.3 0.00 0.11 0.01 56 1018.4
20220628193057 73 153 1.7 5.2 0.00 0.11 0.01 57 1018.4
20220628191550 74 136 1.7 4.3 0.00 0.11 0.01 54 1018.4
20220628190022 74 192 0.9 4.3 0.00 0.11 0.01 53 1018.5
20220628184512 73 145 2.6 6.1 0.00 0.12 0.01 55 1018.5
20220628183009 74 280 1.7 6.1 0.00 0.12 0.01 52 1018.4
20220628181505 73 141 0.9 5.2 0.00 0.12 0.01 54 1018.4
20220628180004 73 126 2.6 7.0 0.00 0.12 0.01 54 1018.3
20220628174557 73 147 1.7 8.7 0.00 0.12 0.01 55 1018.3
20220628173052 73 126 4.3 8.7 0.00 0.12 0.01 53 1018.3
20220628171545 74 126 2.6 8.7 0.00 0.12 0.01 53 1018.4
20220628170043 75 120 1.7 3.5 0.00 0.12 0.01 54 1018.2
20220628164536 75 111 1.7 3.5 0.00 0.40 0.01 55 1018.2
20220628163036 76 99 0.9 2.6 0.00 0.40 0.01 52 1018.2
20220628161535 75 84 0.9 7.0 0.00 0.40 0.01 53 1018.2
20220628160021 77 75 0.0 3.5 0.00 0.40 0.01 50 1018.2
20220628154517 78 23 0.9 2.6 0.00 0.45 0.01 48 1018.4
20220628153012 80 15 0.0 2.6 0.00 0.45 0.01 44 1018.3
20220628151505 81 323 0.9 5.2 0.00 0.45 0.01 43 1018.2
20220628150105 80 344 0.0 1.7 0.00 0.45 0.01 45 1018.0
20220628144556 80 1 0.0 1.7 0.00 0.45 0.01 45 1018.0
20220628143055 81 343 0.0 2.6 0.00 0.45 0.01 45 1017.9
20220628141544 81 36 0.0 1.7 0.00 0.45 0.01 46 1017.7
20220628140041 81 355 0.0 2.6 0.00 0.45 0.01 45 1017.6
20220628134534 81 58 0.0 2.6 0.00 0.45 0.01 47 1017.7
20220628133030 81 1 0.0 0.9 0.00 0.45 0.01 47 1017.7
20220628131524 81 356 0.0 0.9 0.00 0.45 0.01 47 1017.4
20220628130025 80 6 0.0 0.0 0.00 0.45 0.01 48 1017.3
20220628124515 79 325 0.0 1.7 0.00 0.45 0.01 50 1017.2
20220628123015 78 23 0.0 1.7 0.00 0.45 0.01 51 1017.2
20220628121503 78 354 0.0 0.9 0.00 0.45 0.01 51 1017.0
20220628120100 78 323 0.0 0.0 0.00 0.45 0.01 52 1017.1
20220628114554 76 329 0.0 0.0 0.00 0.45 0.01 53 1016.8
20220628113049 75 328 0.0 0.9 0.00 0.45 0.01 55 1016.6
20220628111543 74 311 0.0 0.0 0.00 0.45 0.01 56 1016.4
20220628110041 72 308 0.0 0.9 0.00 0.45 0.01 59 1016.5
20220628104540 70 304 0.0 0.0 0.00 0.45 0.01 63 1016.4
20220628103029 67 299 0.0 0.0 0.00 0.45 0.01 67 1016.3
20220628101522 64 131 0.0 0.9 0.00 0.45 0.01 72 1016.3
20220628100018 63 131 0.0 0.0 0.00 0.45 0.01 72 1016.2
20220628094513 63 131 0.0 0.9 0.01 0.45 0.01 71 1015.9
20220628093008 64 131 0.0 0.0 0.01 0.45 0.01 70 1015.6
20220628091505 64 131 0.0 0.0 0.01 0.45 0.01 70 1015.4
20220628090105 64 131 0.0 0.0 0.01 0.45 0.01 72 1015.3
20220628084553 61 143 1.7 7.0 0.00 0.44 0.00 52 1015.1
20220628083052 62 79 3.5 8.7 0.00 0.44 0.00 54 1015.0
20220628081541 62 86 3.5 7.0 0.00 0.44 0.00 56 1015.0
20220628080037 62 82 3.5 7.8 0.00 0.44 0.00 56 1015.0
20220628074533 63 110 2.6 7.0 0.00 0.44 0.00 57 1014.8
20220628073027 63 108 2.6 6.1 0.00 0.44 0.00 55 1014.8
20220628071520 63 153 1.7 5.2 0.00 0.44 0.00 53 1014.7
20220628070018 63 118 0.9 8.7 0.00 0.44 0.00 54 1014.6
20220628064512 64 54 4.3 7.8 0.00 0.44 0.00 57 1014.3
20220628063007 64 145 2.6 8.7 0.00 0.44 0.00 57 1014.3
20220628061502 65 88 4.3 8.7 0.00 0.44 0.00 57 1014.1
20220628060056 65 109 3.5 9.6 0.00 0.44 0.00 55 1014.1
20220628054551 65 68 4.3 8.7 0.00 0.44 0.00 54 1013.9
20220628053049 66 111 5.2 10.4 0.00 0.44 0.00 52 1013.6
20220628051551 66 111 4.3 8.7 0.00 0.44 0.00 50 1013.6
20220628050009 66 88 3.5 7.8 0.00 0.44 0.00 46 1013.5
20220628044505 66 71 3.5 7.8 0.00 0.44 0.00 41 1013.4
20220628043032 67 90 3.5 7.0 0.00 0.44 0.00 28 1013.4
20220628041527 67 117 2.6 7.0 0.00 0.44 0.00 14 1013.2
20220628040018 67 110 1.7 7.0 0.00 0.44 0.00 4 1013.2
20220628034513 68 64 0.9 6.1 0.00 0.44 0.44 1 1013.0